Home > Weather > Cloppenburg > Past weeks

Flag for Germany Past Weather in Cloppenburg, Lower Saxony, Germany — Yesterday and Last 2 Weeks

Now
75 °F

Mild.


Feels Like: 77 °F
Forecast: 60 / 81 °F
Wind: 2 mph from North

Location: Meppen-Mil

Current Time: Jul 23, 2016 at 5:22:41 PM

Latest Report: Jul 23, 2016 at 4:20 PM


Visibility: 4 mi

Pressure: 30.09 "Hg

Humidity: 69%

Dew Point: 64 °F

Location of CloppenburgLocation

Past Weather in Cloppenburg — Graph

°F

Cloppenburg Temperature Yesterday

Maximum temperature yesterday: 75 °F (at 5:20 PM)
Minimum temperature yesterday: 63 °F (at 1:20 AM)
Average temperature yesterday: 67 °F

High & Low Weather Summary for the Past Weeks

 TemperatureHumidityPressure
High91 °F (Jul 20, 5:20 PM)100% (Jul 13, 12:20 AM)30.24 "Hg (Jul 13, 12:20 AM)
Low50 °F (Jul 14, 3:20 AM)31% (Jul 20, 4:20 PM)29.71 "Hg (Jul 10, 8:20 PM)
Average66 °F75%30.02 "Hg
* Reported Jul 8 3:20 PM — Jul 23 3:20 PM, Cloppenburg, Weather by CustomWeather, © 2016

Note: Actual official high and low records may vary slightly from our data, if they occured in-between our weather recording intervals... More about our weather records

Advertising

Cloppenburg Weather History for the Previous 24 Hours

Scroll right to see more
 ConditionsComfort  
Time TempWeatherWind HumidityBarometerVisibility
3:20 PM
Sat, Jul 23
73 °FMild.2 mph74%30.09 "Hg3 mi
2:20 PM70 °FMild.2 mph83%30.09 "Hg3 mi
1:20 PM68 °FMild.2 mph88%30.09 "Hg3 mi
12:20 PM66 °FMild.3 mph88%30.09 "Hg3 mi
11:20 AM66 °FMild.3 mph88%30.09 "Hg2 mi
10:20 AM63 °FMild.3 mph100%30.09 "Hg1 mi
9:20 AM63 °FMild.3 mph94%30.09 "Hg1 mi
8:20 AM63 °FMild.3 mph94%30.07 "Hg1 mi
7:20 AM63 °FMild.5 mph94%30.07 "Hg0 mi
6:20 AM63 °FMild.5 mph94%30.07 "Hg0 mi
5:20 AM63 °FMild.3 mph100%30.07 "Hg1 mi
4:20 AM64 °FMild.5 mph94%30.07 "Hg1 mi
3:20 AM64 °FMild.5 mph94%30.07 "Hg1 mi
2:20 AM64 °FMild.3 mph94%30.07 "Hg0 mi
1:20 AM64 °FMild.3 mph94%30.07 "Hg2 mi
12:20 AM64 °FMild.3 mph94%30.07 "Hg2 mi
11:20 PM
Fri, Jul 22
64 °FMild.2 mph94%30.07 "Hg3 mi
10:20 PM66 °FMild.2 mph94%30.07 "Hg4 mi
9:20 PM70 °FMild.2 mph83%30.07 "Hg4 mi
8:20 PM72 °FMild.5 mph78%30.04 "Hg4 mi
7:20 PM73 °FMild.3 mph74%30.04 "Hg4 mi
6:20 PM73 °FMild.5 mph74%30.04 "Hg4 mi
5:20 PM75 °FMild.2 mph69%30.04 "Hg4 mi
Weather by CustomWeather, © 2016

See weather overviewHow to use our weather pages